Change the Weather History Date:

Monday, July 9, 2012

  Actual Average Record
Temperature  
Mean Temperature 62 °F -  
Max Temperature 84 °F 78 °F 93 °F (2002)
Min Temperature 41 °F 41 °F 28 °F (1983)
Degree Days  
Heating Degree Days 2    
Growing Degree Days 12 (Base 50)    
Moisture  
Dew Point 34 °F    
Average Humidity 45    
Maximum Humidity 81    
Minimum Humidity 11    
Precipitation  
Precipitation 0.00 in - - ()
Sea Level Pressure  
Sea Level Pressure 30.28 in    
Wind  
Wind Speed 3 mph (SW)    
Max Wind Speed 20 mph    
Max Gust Speed 26 mph    
Visibility 10 miles    
Events      
Averages and records for this station are not official NWS values.
T = Trace of Precipitation, MM = Missing Value Source: NWS Daily Summary

Daily Weather History Graph

Daily Weather History Graph

Search for Another Location

Airport or City:

Trip Planner

Search our weather history database for the weather conditions in past years. The results will help you decide how hot, cold, wet, or windy it might be!

Date:

Astronomy

Jul. 09, 2012 Rise Set
Actual Time 5:42 AM PDT 8:28 PM PDT
Civil Twilight 5:10 AM PDT 9:00 PM PDT
Nautical Twilight 4:30 AM PDT 9:40 PM PDT
Astronomical Twilight 3:45 AM PDT 10:25 PM PDT
Moon 11:50 PM PDT (7/9) 12:12 PM PDT (7/9)
Length of Visible Light 15h 49m
Length of Day
14h 46m
Waning Gibbous, 63% of the Moon is Illuminated
Jul 9
Waning Gibbous
Jul 10
Last Quarter
Jul 18
New
Jul 26
First Quarter
Aug 1
Full

Hourly Weather History & Observations

Time (PDT) Temp. Windchill Dew Point Humidity Pressure Visibility Wind Dir Wind Speed Gust Speed Precip Events Conditions
12:15 AM 51.8 °F - 37.4 °F 58% 30.29 in 10.0 mi Calm Calm - N/A   Partly Cloudy
12:35 AM 50.0 °F - 37.4 °F 62% 30.29 in 10.0 mi Calm Calm - N/A   Partly Cloudy
12:55 AM 50.0 °F - 37.4 °F 62% 30.29 in 10.0 mi Calm Calm - N/A   Partly Cloudy
1:15 AM 48.2 °F - 37.4 °F 66% 30.29 in 10.0 mi Calm Calm - N/A   Clear
1:35 AM 50.0 °F - 39.2 °F 66% 30.29 in 10.0 mi Calm Calm - N/A   Partly Cloudy
3:15 AM 44.6 °F - 35.6 °F 71% 30.28 in 10.0 mi Calm Calm - N/A   Clear
3:35 AM 46.4 °F - 35.6 °F 66% 30.28 in 10.0 mi Calm Calm - N/A   Clear
3:55 AM 44.6 °F 43.1 °F 33.8 °F 66% 30.28 in 10.0 mi East 3.5 mph - N/A   Clear
4:15 AM 42.8 °F - 35.6 °F 76% 30.28 in 10.0 mi Calm Calm - N/A   Clear
4:35 AM 41.0 °F 39.0 °F 35.6 °F 81% 30.29 in 10.0 mi SE 3.5 mph - N/A   Clear
4:55 AM 41.0 °F - 35.6 °F 81% 30.29 in 10.0 mi Calm Calm - N/A   Unknown
5:15 AM 41.0 °F 39.0 °F 35.6 °F 81% 30.30 in 10.0 mi SW 3.5 mph - N/A   Unknown
5:35 AM 41.0 °F - 35.6 °F 81% 30.30 in 10.0 mi Calm Calm - N/A   Unknown
5:55 AM 41.0 °F - 35.6 °F 81% 30.30 in 10.0 mi Calm Calm - N/A   Clear
6:15 AM 41.0 °F - 35.6 °F 81% 30.30 in 10.0 mi Calm Calm - N/A   Clear
6:35 AM 41.0 °F - 33.8 °F 76% 30.30 in 10.0 mi Calm Calm - N/A   Clear
7:50 AM 53.6 °F - 35.6 °F 51% 30.31 in 10.0 mi Calm Calm - N/A   Clear
8:50 AM 59.0 °F - 35.6 °F 42% 30.30 in 10.0 mi Calm Calm - N/A   Clear
9:45 AM 68.0 °F - 37.4 °F 33% 30.29 in 10.0 mi NNE 4.6 mph - N/A   Clear
10:45 AM 75.2 °F - 32.0 °F 21% 30.28 in 10.0 mi Calm Calm - N/A   Clear
11:50 AM 82.4 °F - 28.4 °F 14% 30.27 in 10.0 mi SSW 5.8 mph - N/A   Partly Cloudy
1:58 PM 84.2 °F - 23.0 °F 11% 30.27 in 10.0 mi SW 19.6 mph 26.5 mph N/A   Clear
2:45 PM 84.2 °F - - N/A% 30.26 in 10.0 mi SSW 6.9 mph 20.7 mph N/A   Clear
3:50 PM 84.2 °F - 28.4 °F 13% 30.26 in 10.0 mi SW 15.0 mph 24.2 mph N/A   Clear
4:50 PM 82.4 °F - 30.2 °F 15% 30.26 in 10.0 mi SW 9.2 mph 19.6 mph N/A   Clear
5:55 PM 80.6 °F - 32.0 °F 17% 30.25 in 10.0 mi West 11.5 mph - N/A   Clear
6:15 PM 80.6 °F - 30.2 °F 16% 30.25 in 10.0 mi West 15.0 mph 18.4 mph N/A   Clear
6:35 PM 80.6 °F - 32.0 °F 17% 30.25 in 10.0 mi West 10.4 mph 16.1 mph N/A   Clear
6:55 PM 78.8 °F - 30.2 °F 17% 30.25 in 10.0 mi WSW 8.1 mph - N/A   Clear
7:15 PM 77.0 °F - 28.4 °F 17% 30.26 in 10.0 mi SW 8.1 mph - N/A   Clear
7:35 PM 77.0 °F - 28.4 °F 17% 30.27 in 10.0 mi West 4.6 mph - N/A   Clear
7:55 PM 73.4 °F - 35.6 °F 25% 30.27 in 10.0 mi West 10.4 mph - N/A   Clear
8:15 PM 71.6 °F - 35.6 °F 27% 30.27 in 10.0 mi West 10.4 mph - N/A   Clear
8:35 PM 68.0 °F - 35.6 °F 30% 30.27 in 10.0 mi West 9.2 mph - N/A   Clear
8:55 PM 66.2 °F - 35.6 °F 32% 30.27 in 10.0 mi Calm Calm - N/A   Clear
9:15 PM 64.4 °F - 35.6 °F 34% 30.28 in 10.0 mi SW 3.5 mph - N/A   Clear
9:35 PM 64.4 °F - 32.0 °F 30% 30.28 in 10.0 mi WSW 3.5 mph - N/A   Clear
9:55 PM 57.2 °F - 32.0 °F 38% 30.28 in 10.0 mi SSE 4.6 mph - N/A   Clear
10:15 PM 55.4 °F - 33.8 °F 44% 30.29 in 10.0 mi South 4.6 mph - N/A   Clear
10:35 PM 53.6 °F - 33.8 °F 47% 30.28 in 10.0 mi Calm Calm - N/A   Clear
10:55 PM 55.4 °F - 32.0 °F 41% 30.28 in 10.0 mi SSE 3.5 mph - N/A   Clear
11:15 PM 51.8 °F - 32.0 °F 47% 30.28 in 10.0 mi Calm Calm - N/A   Clear
11:35 PM 53.6 °F - 32.0 °F 44% 30.28 in 10.0 mi Calm Calm - N/A   Clear
11:55 PM 50.0 °F - 33.8 °F 54% 30.28 in 10.0 mi Calm Calm - N/A   Clear